Regional Weather Roundup
Issued by NWS

Home | Current Version | Previous Version | Graphics & Text | Print | Product List | Glossary On
Versions: 1 2 3 4 5 6 7 8 9 10 11 12 13 14 15 16 17 18 19 20 21 22 23 24 25 26 27 28 29 30 31 32 33 34 35 36 37 38 39 40 41 42 43 44 45 46 47 48 49 50
000
ASUS43 KLOT 231009
RWRIL

ILLINOIS REGIONAL WEATHER ROUNDUP
NATIONAL WEATHER SERVICE CHICAGO/ROMEOVILLE IL
500 AM CDT WED AUG 23 2017

NOTE: "FAIR" INDICATES FEW OR NO CLOUDS BELOW 12,000 FEET WITH NO
SIGNIFICANT WEATHER AND/OR OBSTRUCTIONS TO VISIBILITY.

* THESE STATIONS ARE NOT UNDER NWS QUALITY CONTROL. THEY ALSO MAY NOT
  REPORT WEATHER SUCH AS PRECIPITATION OR FOG.

ILZ001-002-007-009-015-016-024-231100-
NORTHWEST ILLINOIS

CITY           SKY/WX    TMP DP  RH WIND       PRES   REMARKS
MOLINE         CLEAR     56  50  80 W5        30.08S
STERLING*      CLEAR     54  52  93 W5        30.07
SAVANNA*       CLEAR     51  50  95 CALM      30.07S
$$

ILZ003-004-008-010-011-017-018-231100-
NORTH CENTRAL ILLINOIS

CITY           SKY/WX    TMP DP  RH WIND       PRES   REMARKS
ROCKFORD       CLEAR     54  50  86 CALM      30.06R
FREEPORT*      CLEAR     54  50  87 W7        30.07S
ROCHELLE*      CLEAR     48  47  98 S5        30.06S
DE KALB*       CLEAR     55  51  87 W7        30.05S
PERU*          CLEAR     54  51  89 NW6       30.06S
$$

ILZ005-006-012>014-019>023-231100-
NORTHEAST ILLINOIS

CITY           SKY/WX    TMP DP  RH WIND       PRES   REMARKS
CHICAGO-OHARE  CLEAR     61  51  70 W8        30.01S
CHICAGO-MIDWAY CLEAR     61  51  70 NW8       30.01F
AURORA         CLEAR     50  49  96 CALM      30.04S
LANSING*       CLEAR     55  50  81 W3        30.02S
JOLIET*        CLEAR     59  53  80 CALM      30.03S
WAUKEGAN       CLEAR     56  52  86 W3        30.00S
DUPAGE AIRPORT CLEAR     56  52  86 NW6       30.02S
WHEELING       CLEAR     59  53  80 W5        30.02F
MORRIS*        CLEAR     53  51  93 NW6       30.03S
ROMEOVILLE*    CLEAR     56  50  80 NW8       30.03F
NORTHERLY ISL    N/A     65  50  58 W8          N/A
$$

LMZ740>746-231100-
SOUTHERN LAKE MICHIGAN

STATION/POSITION SKY/WX   TEMP    WIND        PRES    VSBY  WAVE
                          AIR SEA DIR/SP/G                  HT/PER
                          (F)     (DEG/KT/KT) (MB)    (MI)  (FT/S)
SOUTHERN BUOY              68 71  320/ 14/ 16 1014.8          4/ 4
WILMETTE HARBOR            65 73  280/ 14/ 16   N/A           3/ 4
HARRISON CRIB              66     300/ 13/ 14   N/A
CALUMET HARBOR             62     270/  2/  8 1015.6F
BURNS HARBOR               69     320/ 13/ 16 1016.3S
MICHIGAN CITY              69     310/ 17/ 19   N/A
MICHIGAN CITY 6N           70 73  320/ 14/ 19   N/A           5/ 5
ST. JOSEPH                 70 73  350/ 14/ 17 1015.2          5/ 5
$$

ILZ025>027-034>036-040-047-049-050-058-095>099-231100-
WEST-CENTRAL ILLINOIS

CITY           SKY/WX    TMP DP  RH WIND       PRES   REMARKS
QUINCY         CLEAR     56  53  90 NW5       30.10F
GALESBURG*     CLEAR     53  51  96 W5        30.09F
MACOMB*        CLEAR     53  52  96 W3        30.11F
JACKSONVILLE*  PTCLDY    55  53  94 NW3       30.09S
PITTSFIELD*    PTCLDY    57  53  88 NW3       30.11S
$$

ILZ028>032-037-038-041>044-048-051>054-059>061-231100-
CENTRAL ILLINOIS

CITY           SKY/WX    TMP DP  RH WIND       PRES   REMARKS
PONTIAC        CLEAR     54  54  99 CALM      30.06S
BLOOMINGTON    CLEAR     55  52  89 NW8       30.07F
DECATUR        CLEAR     60  54  80 NW9       30.06S
PEORIA         CLEAR     57  54  89 NW5       30.07F
LACON*         CLEAR     53  52  95 CALM      30.06S
LINCOLN*       CLEAR     57  55  92 CALM      30.07S
SPRINGFIELD    CLEAR     56  54  93 NW3       30.08F
TAYLORVILLE    PTCLDY    56  55  94 CALM      30.07S
$$

ILZ033-039-045-046-055>057-062-063-231100-
EAST-CENTRAL ILLINOIS

CITY           SKY/WX    TMP DP  RH WIND       PRES   REMARKS
CHAMPAIGN      CLEAR     55  52  89 NW5       30.05S
RANTOUL*       PTCLDY    58  55  91 NW8       30.05S
MATTOON        PTCLDY    56  55  97 NW7       30.04S
PARIS*         PTCLDY    54  53  97 NW5       30.05S
$$

ILZ079-100>102-231100-
SOUTHWEST ILLINOIS

CITY           SKY/WX    TMP DP  RH WIND       PRES   REMARKS
ALTON          CLEAR     58  56  91 CALM      30.08S
BELLEVILLE     CLEAR     60  55  82 NW5       30.08S
CAHOKIA*       CLEAR     59  55  87 CALM      30.08R
SPARTA*        CLEAR     60  57  88 NW3       30.08S
$$

ILZ064>066-069>071-074>076-080>082-084>086-088>090-092>094-231100-
SOUTH-CENTRAL ILLINOIS

CITY           SKY/WX    TMP DP  RH WIND       PRES   REMARKS
CARBONDALE     CLEAR     61  60  97 N5        30.05F
CAIRO*         MOCLDY    65  62  87 N6        30.04R
EFFINGHAM*     CLEAR     58  58  97 W3        30.07R
MARION         CLEAR     64  63  94 CALM      30.06S
MT. VERNON       N/A     55  55 100 CALM      30.05S FOG
CENTRALIA*     CLEAR     57  56  98 NW3       30.06R
SALEM*         CLEAR     58  55  92 CALM      30.06S
METROPOLIS*    CLOUDY    66  63  90 N6        30.04S
$$

ILZ067-068-072-073-078-083-087-091-231100-
SOUTHEAST ILLINOIS

CITY           SKY/WX    TMP DP  RH WIND       PRES   REMARKS
LAWRENCEVILLE  CLEAR     60  57  89 NW5       30.03S
FLORA*         CLEAR     60  58  91 NW5       30.05S
FAIRFIELD*     CLEAR     60  58  90 CALM      30.04R
HARRISBURG*    CLEAR     63  59  87 CALM      30.04S
ROBINSON*      CLEAR     54  54  99 NW3       30.04S
CARMI*         CLEAR     58  57  99 NW3       30.03S
$$

ABBREVIATIONS USED IN REMARKS
   TC - TEMPERATURE IN CELSIUS
  WCI - WIND CHILL INDEX
   HX - HEAT INDEX
  VSB - VISIBILITY
$$





USA.gov is the U.S. government's official web portal to all federal, state and local government web resources and services.